{"data":{"norad_id":59685,"intl_designator":"2024-086D","name":"STARLINK-32085","alt_names":[],"object_type":"PAYLOAD","status":"ACTIVE","operator":null,"country":"US","launch_date":"2024-05-08","launch_site_code":"AFETR","launch_vehicle":null,"mission":null,"orbit_class":"UNKNOWN","rcs_meters":null,"size_class":null,"mass_kg":null,"dimensions":null,"purposes":["comms"],"wikipedia_slug":null,"has_3d_model":false,"image_url":null,"decayed_at":null,"tle_current":{"epoch":"2026-09-21T15:56:07.783872Z","epoch_age_seconds":70719,"freshness":"FRESH","line1":"1 59685U 24086D   26264.66397898  .00010139  00000+0  37668-3 0  9995","line2":"2 59685  43.0031  33.1585 0001208 264.0436  96.0278 15.27650218134082","mean_motion":15.27650218,"eccentricity":0.0001208,"inclination_deg":43.0031,"raan_deg":33.1585,"arg_perigee_deg":264.0436,"mean_anomaly_deg":96.0278,"bstar":0.00037668,"rev_number":13408,"period_min":94.262415769838,"perigee_km":482.01004025839,"apogee_km":483.66765202282,"semimajor_km":6860.9758461406,"source":"CELESTRAK","updated_at":"2026-09-22T09:00:49.031999Z"}}}